Location: Kouchibouguac National Park
(46.8081°N, 64.9088°W)
Time: 19:16:07
(UTC-04:00)

Amateur Radio Satellites - All Passes

Search period start: 21 December 2014 18:46
Search period end: 22 December 2014 18:46
Location: Kouchibouguac National Park, 46.8081°N, 64.9088°W

Satellite Date Start Highest point End Downlink Frequencies (MHz)
Time Altitude Azimuth
GONETS M04 21 Dec 18:55:49 19:01:54 22° 284° (WNW) 19:07:57
ISS 21 Dec 18:55:59 18:59:17 85° 25° (NNE) 19:02:33 145.825
CUBESAT XI-V 21 Dec 18:57:44 19:02:18 57° 100° (E) 19:06:48 437.345
Cubesat XI-IV 21 Dec 19:00:58 19:04:57 21° 268° (W) 19:08:57 437.490
BRITE-PL 21 Dec 19:10:53 19:13:42 18° 63° (ENE) 19:16:32 437.365/2234.400
MOZHAYETS 4 21 Dec 19:11:03 19:13:00 13° 303° (WNW) 19:14:57
CUSAT 1 21 Dec 19:25:43 19:32:44 39° 69° (ENE) 19:40:30 437.405
AAUSAT CUBESAT 2 21 Dec 19:25:54 19:28:30 16° 61° (ENE) 19:31:08 437.432
PRISM 21 Dec 19:30:24 19:34:10 33° 292° (WNW) 19:37:53 437.425
GOMX 1 21 Dec 19:31:40 19:34:47 21° 64° (ENE) 19:37:56 467.674
STRAND 1 21 Dec 19:32:54 19:38:02 87° 286° (WNW) 19:43:08 437.568
CUTE-I 21 Dec 19:37:08 19:38:25 11° 275° (W) 19:39:41 437.470
CANX-2 21 Dec 19:41:50 19:45:44 36° 69° (ENE) 19:49:42 2200.000
DOVE 4 21 Dec 19:51:39 19:55:01 25° 65° (ENE) 19:58:29 437.250
COMPASS 1 21 Dec 20:00:27 20:04:22 38° 69° (ENE) 20:08:19 437.405
BEESAT 3 21 Dec 20:02:59 20:05:42 16° 32° (NNE) 20:08:24 437.485
HO-68 21 Dec 20:03:58 20:11:09 80° 70° (ENE) 20:18:21 435.675
RS-15 21 Dec 20:04:27 20:15:41 72° 48° (NE) 20:27:22 29.354- 29.394
SEEDS 21 Dec 20:07:17 20:11:25 52° 72° (ENE) 20:15:36 437.485
CINEMA 3 21 Dec 20:08:55 20:12:14 23° 64° (ENE) 20:15:38 145.822/145.860
DELFI C3 21 Dec 20:11:16 20:14:16 20° 64° (ENE) 20:17:18 145.870
CUTE 1.7 + AOD 2 21 Dec 20:12:06 20:16:20 68° 74° (ENE) 20:20:38 437.475
AIST 2 21 Dec 20:16:26 20:18:30 13° 27° (NNE) 20:20:34 435.215
FUNcube-1 21 Dec 20:18:20 20:20:35 14° 60° (ENE) 20:22:52 145.935
UWE-3 21 Dec 20:21:17 20:24:06 18° 62° (ENE) 20:26:59 435.000/436.395/437.385
DANDE 21 Dec 20:22:29 20:30:03 72° 77° (ENE) 20:38:43 436.750
DX 1 21 Dec 20:32:18 20:36:09 32° 67° (ENE) 20:40:01 434.975-435.025
ISS 21 Dec 20:33:14 20:35:30 17° 223° (SW) 20:37:45 145.825
CUBESAT XI-V 21 Dec 20:36:08 20:39:20 19° 298° (WNW) 20:42:32 437.345
AISAT 21 Dec 20:41:01 20:43:40 16° 60° (ENE) 20:46:19 437.250
SO-50 21 Dec 20:42:45 20:46:51 34° 117° (ESE) 20:51:06 436.795
BEESAT 2 21 Dec 20:43:28 20:47:05 27° 40° (NE) 20:50:40 435.950
HUMSAT D 21 Dec 20:43:46 20:46:12 15° 61° (ENE) 20:48:40 437.325/437.525
BRITE-PL 21 Dec 20:47:56 20:51:56 46° 261° (W) 20:55:58 437.365/2234.400
Oscar 11 21 Dec 20:52:18 20:56:35 61° 73° (ENE) 21:00:54 145.826/435.025
AAUSAT CUBESAT 2 21 Dec 20:59:35 21:03:44 59° 259° (W) 21:07:56 437.432
UKube-1 21 Dec 21:01:37 21:05:52 61° 72° (ENE) 21:10:10 .
PCSat 21 Dec 21:04:38 21:08:58 23° 38° (NE) 21:13:15 145.827
CUSAT 1 21 Dec 21:08:36 21:16:05 58° 266° (W) 21:24:21 437.405
GOMX 1 21 Dec 21:08:49 21:12:42 39° 262° (W) 21:16:40 467.674
STRAND 1 21 Dec 21:13:49 21:16:29 15° 304° (NW) 21:19:09 437.568
CANX-2 21 Dec 21:18:18 21:21:46 24° 267° (W) 21:25:17 2200.000
CUBEBUG 2 21 Dec 21:20:18 21:24:29 76° 75° (ENE) 21:28:49 437.445
ZACube-1 21 Dec 21:25:50 21:29:59 64° 73° (ENE) 21:34:15 437.345
DOVE 4 21 Dec 21:28:57 21:32:42 33° 264° (W) 21:36:33 437.250
VELOX 1 21 Dec 21:31:42 21:35:54 44° 70° (ENE) 21:40:07 145.980
COMPASS 1 21 Dec 21:36:53 21:40:13 22° 267° (W) 21:43:35 437.405
ESTCUBE 1 21 Dec 21:39:11 21:42:50 24° 64° (ENE) 21:46:28 437.505/2401.250
BEESAT 3 21 Dec 21:40:20 21:44:33 82° 53° (NE) 21:48:41 437.485
SEEDS 21 Dec 21:44:50 21:47:34 17° 270° (W) 21:50:20 437.485
DELFI C3 21 Dec 21:45:20 21:49:16 43° 262° (W) 21:53:14 145.870
CINEMA 3 21 Dec 21:45:23 21:49:16 37° 263° (W) 21:53:16 145.822/145.860
50 SAT 21 Dec 21:46:04 21:49:57 50° 72° (ENE) 21:53:54 437.505
CUTE 1.7 + AOD 2 21 Dec 21:50:45 21:52:45 13° 272° (W) 21:54:46 437.475
FUNcube-1 21 Dec 21:52:13 21:56:23 69° 258° (WSW) 22:00:42 145.935
AIST 2 21 Dec 21:53:53 21:58:07 52° 48° (NE) 22:02:17 435.215
HO-68 21 Dec 21:54:16 21:59:37 22° 270° (W) 22:05:00 435.675
UNISAT 6 21 Dec 21:55:02 21:57:59 16° 90° (E) 22:00:56 437.425
UWE-3 21 Dec 21:56:09 22:00:15 53° 260° (W) 22:04:29 435.000/436.395/437.385
POLYITAN 1 21 Dec 22:05:11 22:06:46 12° 88° (E) 22:08:21 437.675
NANOSAT C BR1 21 Dec 22:06:20 22:07:55 12° 88° (E) 22:09:29 145.865
DANDE 21 Dec 22:06:42 22:13:08 30° 273° (W) 22:20:13 436.750
DX 1 21 Dec 22:08:41 22:12:25 28° 264° (W) 22:16:10 434.975-435.025
YUBILEINY 21 Dec 22:14:23 22:19:38 18° 74° (ENE) 22:24:52 435.215
AISAT 21 Dec 22:15:25 22:19:48 66° 258° (WSW) 22:24:13 437.250
CUBEBUG 1 21 Dec 22:17:05 22:21:18 50° 71° (ENE) 22:25:31 437.445
RS-15 21 Dec 22:17:22 22:27:24 40° 251° (WSW) 22:37:52 29.354- 29.394
HUMSAT D 21 Dec 22:17:26 22:21:32 61° 259° (W) 22:25:43 437.325/437.525
QB50P1 21 Dec 22:19:58 22:22:44 17° 91° (E) 22:25:30 145.935-145.965
BEESAT 2 21 Dec 22:21:29 22:25:31 45° 240° (WSW) 22:29:29 435.950
SO-50 21 Dec 22:23:04 22:27:22 38° 317° (NW) 22:31:49 436.795
ANTELSAT 21 Dec 22:26:09 22:30:23 32° 96° (E) 22:34:36 437.575/2403.000
Oscar 11 21 Dec 22:30:43 22:33:10 15° 271° (W) 22:35:38 145.826/435.025
UKube-1 21 Dec 22:39:59 22:42:26 15° 270° (W) 22:44:55 .
PCSat 21 Dec 22:47:34 22:53:01 81° 239° (WSW) 22:58:26 145.827
POPSAT HIP 1 21 Dec 22:48:02 22:51:52 32° 96° (E) 22:55:42 437.405
CUSAT 1 21 Dec 22:54:45 22:57:54 13° 283° (WNW) 23:01:09 437.405
CUBEBUG 2 21 Dec 23:00:31 23:01:48 11° 273° (W) 23:03:06 437.445
TIGRISAT 21 Dec 23:00:36 23:05:18 66° 102° (ESE) 23:10:00 435.000
ZACube-1 21 Dec 23:04:45 23:06:50 13° 272° (W) 23:08:58 437.345
BUGSAT 1 21 Dec 23:08:19 23:12:10 40° 99° (E) 23:16:01 437.445
VELOX 1 21 Dec 23:09:22 23:12:42 21° 267° (W) 23:16:02 145.980
TISAT 1 21 Dec 23:12:48 23:16:51 50° 71° (ENE) 23:20:56 437.305
DUCHIFAT 1 21 Dec 23:15:09 23:19:22 60° 101° (E) 23:23:35 145.980
ESTCUBE 1 21 Dec 23:15:12 23:19:29 41° 262° (W) 23:23:48 437.505/2401.250
SPROUT 21 Dec 23:20:07 23:24:17 55° 72° (ENE) 23:28:28 437.525
BEESAT 3 21 Dec 23:20:26 23:22:05 12° 251° (WSW) 23:23:44 437.485
50 SAT 21 Dec 23:23:01 23:25:29 16° 269° (W) 23:27:59 437.505
BEESAT 21 Dec 23:23:26 23:25:59 15° 57° (ENE) 23:28:32 436.000
QB50P2 21 Dec 23:29:37 23:33:55 88° 104° (ESE) 23:38:13 145.880/145.840
UNISAT 6 21 Dec 23:30:31 23:35:12 64° 287° (WNW) 23:39:52 437.425
AIST 2 21 Dec 23:33:11 23:36:24 21° 247° (WSW) 23:39:35 435.215
AUBIESAT-1 21 Dec 23:34:38 23:37:01 14° 51° (NE) 23:39:25 437.475
O/OREOS (USA 219) 21 Dec 23:35:09 23:37:21 14° 98° (E) 23:39:34 437.305
POLYITAN 1 21 Dec 23:38:56 23:43:14 75° 286° (WNW) 23:47:31 437.675
NANOSAT C BR1 21 Dec 23:40:02 23:44:18 74° 286° (WNW) 23:48:33 145.865
QB50P1 21 Dec 23:54:47 23:58:56 52° 288° (WNW) 00:03:04 145.935-145.965
CUBEBUG 1 21 Dec 23:54:58 23:57:58 18° 268° (W) 00:00:57 437.445
M-CUBED/EXP-1 PRIME 21 Dec 23:59:29 00:03:17 23° 57° (ENE) 00:07:06 437.505
ANTELSAT 22 Dec 00:02:57 00:07:09 33° 293° (WNW) 00:11:22 437.575/2403.000
YUBILEINY 22 Dec 00:06:15 00:14:59 80° 96° (E) 00:23:42 435.215
SO-50 22 Dec 00:07:12 00:09:16 13° 340° (NNW) 00:11:22 436.795
POPSAT HIP 1 22 Dec 00:24:04 00:27:41 28° 294° (WNW) 00:31:19 437.405
Oscar 19 22 Dec 00:30:54 00:33:05 13° 87° (E) 00:35:15 437.125/150
PCSat 22 Dec 00:33:14 00:35:32 13° 258° (WSW) 00:37:50 145.827
SWISSCUBE 22 Dec 00:33:42 00:38:26 62° 72° (ENE) 00:43:11 437.505
ITUPSAT 1 22 Dec 00:34:45 00:39:28 58° 71° (ENE) 00:44:11 437.325
TIGRISAT 22 Dec 00:38:29 00:41:34 18° 299° (WNW) 00:44:39 435.000
BUGSAT 1 22 Dec 00:44:25 00:47:26 20° 296° (WNW) 00:50:27 437.445
TISAT 1 22 Dec 00:50:13 00:52:59 17° 269° (W) 00:55:44 437.305
DUCHIFAT 1 22 Dec 00:52:12 00:54:47 16° 299° (WNW) 00:57:23 145.980
SPROUT 22 Dec 00:58:05 01:00:43 16° 270° (W) 01:03:22 437.525
BEESAT 22 Dec 00:58:22 01:03:10 85° 256° (WSW) 01:08:00 436.000
AUBIESAT-1 22 Dec 01:06:20 01:11:11 76° 69° (ENE) 01:16:05 437.475
QB50P2 22 Dec 01:07:39 01:09:11 12° 302° (WNW) 01:10:44 145.880/145.840
O/OREOS (USA 219) 22 Dec 01:11:43 01:16:10 70° 297° (WNW) 01:20:38 437.305
M-CUBED/EXP-1 PRIME 22 Dec 01:33:06 01:37:54 58° 254° (WSW) 01:42:46 437.505
STARS 22 Dec 01:34:20 01:38:16 34° 67° (ENE) 01:42:15 437.465
KKS-1 22 Dec 01:40:32 01:44:52 56° 72° (ENE) 01:49:14 437.445
YUBILEINY 22 Dec 02:05:47 02:12:49 26° 299° (WNW) 02:19:53 435.215
Oscar 19 22 Dec 02:07:56 02:13:10 88° 105° (ESE) 02:18:23 437.125/150
AIST 1 22 Dec 02:13:01 02:15:04 13° 65° (ENE) 02:17:07
SWISSCUBE 22 Dec 02:13:33 02:16:43 17° 269° (W) 02:19:53 437.505
ITUPSAT 1 22 Dec 02:14:23 02:17:43 19° 269° (W) 02:21:04 437.325
ITAMSAT 1 22 Dec 02:26:48 02:31:51 51° 100° (E) 02:36:53 435.822/435.867
Gurwin Techsat 1B 22 Dec 02:30:05 02:34:59 36° 96° (E) 02:39:50 435.225
BEESAT 22 Dec 02:40:40 02:41:44 11° 274° (W) 02:42:49 436.000
AUBIESAT-1 22 Dec 02:43:42 02:46:36 16° 266° (W) 02:49:31 437.475
O/OREOS (USA 219) 22 Dec 02:54:51 02:56:27 12° 318° (NW) 02:58:04 437.305
HORYU 2 22 Dec 03:00:50 03:04:40 26° 95° (E) 03:08:27 437.375
MOZHAYETS 4 22 Dec 03:01:34 03:04:29 17° 60° (ENE) 03:07:23
STARS 22 Dec 03:11:06 03:14:48 27° 265° (W) 03:18:32 437.465
KKS-1 22 Dec 03:19:04 03:21:52 16° 269° (W) 03:24:42 437.445
SO-50 22 Dec 03:31:09 03:34:34 19° 30° (NNE) 03:38:01 436.795
VERMONT LUNAR 22 Dec 03:33:54 03:36:40 22° 165° (SSE) 03:39:25 437.305
AO-7 22 Dec 03:48:09 03:55:38 35° 96° (E) 04:03:02 29.400- 29.500
Oscar 19 22 Dec 03:48:48 03:51:48 16° 304° (WNW) 03:54:48 437.125/150
AIST 1 22 Dec 03:48:59 03:53:16 68° 264° (W) 03:57:29
PHONESAT 2.4 22 Dec 03:54:44 03:57:34 21° 164° (SSE) 04:00:23 2401.200-2431.200
ITAMSAT 1 22 Dec 04:06:54 04:11:02 25° 298° (WNW) 04:15:10 435.822/435.867
GONETS M04 22 Dec 04:08:22 04:14:33 22° 77° (ENE) 04:20:42
Gurwin Techsat 1B 22 Dec 04:10:08 04:14:55 35° 295° (WNW) 04:19:40 435.225
CUBESAT XI-V 22 Dec 04:30:37 04:31:55 11° 56° (NE) 04:33:14 437.345
JAS-2 22 Dec 04:34:36 04:39:09 25° 91° (E) 04:43:25 435.910
MOZHAYETS 4 22 Dec 04:36:33 04:41:11 69° 258° (WSW) 04:45:51
HORYU 2 22 Dec 04:37:15 04:41:24 36° 292° (WNW) 04:45:32 437.375
PRISM 22 Dec 04:48:40 04:52:18 28° 66° (ENE) 04:55:56 437.425
SO-50 22 Dec 05:11:03 05:15:57 73° 51° (NE) 05:20:52 436.795
VERMONT LUNAR 22 Dec 05:11:21 05:14:27 29° 182° (S) 05:17:33 437.305
STRAND 1 22 Dec 05:13:47 05:18:01 27° 63° (ENE) 05:22:15 437.568
PHONESAT 2.4 22 Dec 05:32:30 05:35:43 30° 181° (S) 05:38:56 2401.200-2431.200
Cubesat XI-IV 22 Dec 05:34:34 05:38:12 18° 90° (E) 05:41:50 437.490
AO-7 22 Dec 05:40:38 05:48:51 62° 296° (WNW) 05:57:01 29.400- 29.500
GONETS M04 22 Dec 06:01:17 06:10:09 89° 278° (W) 06:19:03
CUBESAT XI-V 22 Dec 06:03:54 06:08:34 77° 75° (ENE) 06:13:14 437.345
CUTE-I 22 Dec 06:06:35 06:11:23 34° 96° (E) 06:16:11 437.470
JAS-2 22 Dec 06:19:10 06:24:40 49° 292° (WNW) 06:29:42 435.910
PRISM 22 Dec 06:24:02 06:27:46 30° 264° (W) 06:31:32 437.425
VERMONT LUNAR 22 Dec 06:49:40 06:52:12 19° 199° (SSW) 06:54:44 437.305
STRAND 1 22 Dec 06:52:06 06:56:59 46° 261° (W) 07:01:54 437.568
SO-50 22 Dec 06:52:42 06:56:00 18° 249° (WSW) 06:59:17 436.795
PHONESAT 2.4 22 Dec 07:11:08 07:13:51 20° 198° (SSW) 07:16:34 2401.200-2431.200
Cubesat XI-IV 22 Dec 07:13:30 07:18:48 67° 288° (WNW) 07:24:04 437.490
HO-68 22 Dec 07:31:56 07:34:03 11° 83° (E) 07:36:10 435.675
AO-7 22 Dec 07:34:53 07:40:03 18° 319° (NW) 07:45:13 29.400- 29.500
CUBESAT XI-V 22 Dec 07:44:23 07:46:34 13° 272° (W) 07:48:45 437.345
CUTE-I 22 Dec 07:46:38 07:51:29 37° 294° (WNW) 07:56:20 437.470
GONETS M04 22 Dec 08:01:41 08:08:20 23° 302° (WNW) 08:15:02
YUBILEINY 22 Dec 08:19:44 08:21:36 11° 45° (NE) 08:23:27 435.215
TIGRISAT 22 Dec 08:29:33 08:30:48 11° 56° (NE) 08:32:02 435.000
AAUSAT CUBESAT 2 22 Dec 08:41:08 08:44:09 19° 91° (E) 08:47:08 437.432
MaSat-1 22 Dec 08:41:14 08:43:25 48° 116° (ESE) 08:45:34 437.345
CUSAT 1 22 Dec 08:42:22 08:45:23 20° 81° (E) 08:49:02 437.405
BRITE-PL 22 Dec 08:48:27 08:52:55 41° 98° (E) 08:57:42 437.365/2234.400
QB50P2 22 Dec 08:52:54 08:54:29 12° 58° (ENE) 08:56:04 145.880/145.840
Cubesat XI-IV 22 Dec 08:56:02 08:57:55 12° 308° (NW) 08:59:49 437.490
UNISAT 6 22 Dec 08:57:17 09:00:32 20° 62° (ENE) 09:03:50 437.425
CANX-2 22 Dec 09:00:02 09:04:15 48° 99° (E) 09:08:25 2200.000
POLYITAN 1 22 Dec 09:01:33 09:03:50 15° 60° (ENE) 09:06:09 437.675
NANOSAT C BR1 22 Dec 09:02:14 09:04:31 14° 60° (ENE) 09:06:48 145.865
GOMX 1 22 Dec 09:06:24 09:10:59 45° 99° (E) 09:15:51 467.674
CUBEBUG 2 22 Dec 09:09:51 09:12:26 15° 89° (E) 09:15:02 437.445
ZACube-1 22 Dec 09:14:04 09:15:22 11° 87° (E) 09:16:41 437.345
HO-68 22 Dec 09:16:04 09:23:12 64° 103° (ESE) 09:30:15 435.675
QB50P1 22 Dec 09:16:05 09:19:06 19° 63° (ENE) 09:22:07 145.935-145.965
COMPASS 1 22 Dec 09:16:56 09:21:06 48° 99° (E) 09:25:12 437.405
DELFI C3 22 Dec 09:23:33 09:26:46 22° 93° (E) 09:29:58 145.870
DOVE 4 22 Dec 09:23:50 09:28:29 49° 99° (E) 09:33:23 437.250
SEEDS 22 Dec 09:24:48 09:29:07 70° 102° (ESE) 09:33:22 437.485
ANTELSAT 22 Dec 09:28:19 09:32:24 38° 68° (ENE) 09:36:37 437.575/2403.000
CUTE 1.7 + AOD 2 22 Dec 09:30:33 09:34:55 89° 284° (WNW) 09:39:13 437.475
CINEMA 3 22 Dec 09:36:36 09:41:06 41° 98° (E) 09:45:44 145.822/145.860
FUNcube-1 22 Dec 09:38:36 09:41:55 20° 92° (E) 09:45:16 145.935
O/OREOS (USA 219) 22 Dec 09:39:36 09:43:56 45° 59° (ENE) 09:48:17 437.305
DANDE 22 Dec 09:41:17 09:45:00 60° 95° (E) 09:50:05 436.750
UWE-3 22 Dec 09:43:24 09:47:17 26° 94° (E) 09:51:11 435.000/436.395/437.385
POPSAT HIP 1 22 Dec 09:44:01 09:47:51 35° 68° (ENE) 09:51:42 437.405
DX 1 22 Dec 09:53:37 09:57:42 39° 98° (E) 10:01:46 434.975-435.025
HUMSAT D 22 Dec 09:59:55 10:03:00 19° 92° (E) 10:06:05 437.325/437.525
BUGSAT 1 22 Dec 10:01:30 10:05:21 42° 70° (ENE) 10:09:12 437.445
TIGRISAT 22 Dec 10:02:22 10:06:44 81° 75° (ENE) 10:11:16 435.000
AISAT 22 Dec 10:04:29 10:07:42 19° 92° (E) 10:10:53 437.250
DUCHIFAT 1 22 Dec 10:10:42 10:14:52 66° 73° (ENE) 10:19:03 145.980
Oscar 11 22 Dec 10:12:53 10:17:18 85° 103° (ESE) 10:21:39 145.826/435.025
YUBILEINY 22 Dec 10:12:55 10:21:14 46° 71° (ENE) 10:29:30 435.215
AAUSAT CUBESAT 2 22 Dec 10:15:59 10:20:03 46° 289° (WNW) 10:24:05 437.432
UKube-1 22 Dec 10:22:36 10:26:57 75° 103° (ESE) 10:31:17 .
CUSAT 1 22 Dec 10:23:58 10:27:50 43° 291° (WNW) 10:33:02 437.405
QB50P2 22 Dec 10:25:32 10:29:46 85° 256° (WSW) 10:34:01 145.880/145.840
BRITE-PL 22 Dec 10:27:23 10:31:18 27° 294° (WNW) 10:35:28 437.365/2234.400
UNISAT 6 22 Dec 10:32:42 10:36:58 49° 261° (W) 10:41:23 437.425
RS-15 22 Dec 10:33:49 10:42:40 30° 104° (ESE) 10:51:30 29.354- 29.394
POLYITAN 1 22 Dec 10:35:05 10:39:16 67° 258° (WSW) 10:43:30 437.675
NANOSAT C BR1 22 Dec 10:35:42 10:39:53 67° 258° (WSW) 10:44:06 145.865
CANX-2 22 Dec 10:36:44 10:39:52 20° 297° (WNW) 10:42:58 2200.000
CUBEBUG 2 22 Dec 10:44:57 10:49:35 71° 286° (WNW) 10:54:18 437.445
GOMX 1 22 Dec 10:45:03 10:48:55 26° 294° (WNW) 10:53:00 467.674
ZACube-1 22 Dec 10:47:47 10:52:21 88° 283° (WNW) 10:56:57 437.345
QB50P1 22 Dec 10:50:38 10:54:41 46° 261° (W) 10:58:46 145.935-145.965
COMPASS 1 22 Dec 10:53:28 10:56:29 19° 297° (WNW) 10:59:29 437.405
VELOX 1 22 Dec 10:55:54 11:00:18 60° 101° (ESE) 11:04:40 145.980
DELFI C3 22 Dec 10:58:21 11:02:10 37° 291° (WNW) 11:05:57 145.870
50 SAT 22 Dec 10:58:26 11:02:34 59° 101° (E) 11:06:40 437.505
SEEDS 22 Dec 11:02:05 11:04:24 14° 300° (WNW) 11:06:43 437.485
DOVE 4 22 Dec 11:02:15 11:06:00 24° 296° (WNW) 11:09:54 437.250
HO-68 22 Dec 11:04:24 11:10:28 31° 303° (WNW) 11:16:31 435.675
ESTCUBE 1 22 Dec 11:05:10 11:09:14 33° 96° (E) 11:13:16 437.505/2401.250
ANTELSAT 22 Dec 11:05:45 11:09:20 24° 267° (W) 11:13:02 437.575/2403.000
CUTE 1.7 + AOD 2 22 Dec 11:08:44 11:10:09 11° 302° (WNW) 11:11:33 437.475
FUNcube-1 22 Dec 11:14:08 11:18:31 50° 289° (WNW) 11:22:57 145.935
CINEMA 3 22 Dec 11:14:10 11:18:08 27° 294° (WNW) 11:22:13 145.822/145.860
O/OREOS (USA 219) 22 Dec 11:19:35 11:23:04 22° 258° (WSW) 11:26:32 437.305
UWE-3 22 Dec 11:19:39 11:23:54 38° 291° (WNW) 11:28:13 435.000/436.395/437.385
POPSAT HIP 1 22 Dec 11:20:26 11:23:50 24° 266° (W) 11:27:16 437.405
DANDE 22 Dec 11:26:48 11:29:25 16° 305° (NW) 11:32:30 436.750
DX 1 22 Dec 11:30:16 11:33:45 24° 296° (WNW) 11:37:14 434.975-435.025
HUMSAT D 22 Dec 11:34:52 11:39:03 48° 289° (WNW) 11:43:14 437.325/437.525
BUGSAT 1 22 Dec 11:38:11 11:41:04 18° 267° (W) 11:43:56 437.445
CUBEBUG 1 22 Dec 11:39:25 11:43:46 69° 102° (ESE) 11:48:05 437.445
AISAT 22 Dec 11:40:18 11:44:35 48° 290° (WNW) 11:48:51 437.250
TIGRISAT 22 Dec 11:42:42 11:44:08 11° 273° (W) 11:45:35 435.000
DUCHIFAT 1 22 Dec 11:49:16 11:51:11 13° 271° (W) 11:53:07 145.980
Oscar 19 22 Dec 11:49:44 11:53:55 26° 62° (ENE) 11:58:09 437.125/150
Oscar 11 22 Dec 11:50:58 11:52:49 13° 302° (WNW) 11:54:40 145.826/435.025
UKube-1 22 Dec 12:00:20 12:02:33 14° 301° (WNW) 12:04:45 .
YUBILEINY 22 Dec 12:09:57 12:18:01 45° 273° (W) 12:26:05 435.215
ITAMSAT 1 22 Dec 12:10:48 12:14:03 17° 57° (ENE) 12:17:18 435.822/435.867
Gurwin Techsat 1B 22 Dec 12:17:51 12:20:11 13° 54° (NE) 12:22:32 435.225
BEESAT 2 22 Dec 12:20:32 12:23:12 17° 111° (ESE) 12:25:55 435.950
CUBEBUG 2 22 Dec 12:24:39 12:25:29 10° 304° (NW) 12:26:19 437.445
ZACube-1 22 Dec 12:26:12 12:28:02 12° 302° (WNW) 12:29:53 437.345
TISAT 1 22 Dec 12:30:32 12:34:45 62° 101° (ESE) 12:38:56 437.305
SWISSCUBE 22 Dec 12:33:16 12:35:19 13° 88° (E) 12:37:22 437.505
VELOX 1 22 Dec 12:33:35 12:36:26 17° 299° (WNW) 12:39:17 145.980
ITUPSAT 1 22 Dec 12:34:49 12:36:32 12° 87° (E) 12:38:14 437.325
50 SAT 22 Dec 12:34:50 12:37:20 16° 298° (WNW) 12:39:51 437.505
SPROUT 22 Dec 12:39:57 12:44:16 74° 103° (ESE) 12:48:34 437.525
ESTCUBE 1 22 Dec 12:42:09 12:46:02 29° 294° (WNW) 12:49:54 437.505/2401.250
RS-15 22 Dec 12:42:48 12:53:45 83° 308° (NW) 13:04:52 29.354- 29.394
BEESAT 22 Dec 12:56:44 13:00:14 20° 92° (E) 13:03:42 436.000
AO-7 22 Dec 13:01:56 13:06:57 18° 41° (NE) 13:11:58 29.400- 29.500
ISS 22 Dec 13:15:06 13:18:03 30° 142° (SE) 13:21:00 145.825
BEESAT 3 22 Dec 13:15:14 13:19:17 62° 123° (ESE) 13:23:25 437.485
CUBEBUG 1 22 Dec 13:17:12 13:19:37 15° 300° (WNW) 13:22:03 437.445
Oscar 19 22 Dec 13:28:01 13:32:59 49° 261° (W) 13:38:01 437.125/150
PCSat 22 Dec 13:31:58 13:37:11 52° 116° (ESE) 13:42:27 145.827
AIST 2 22 Dec 13:33:13 13:37:13 42° 119° (ESE) 13:41:17 435.215
ITAMSAT 1 22 Dec 13:47:44 13:52:55 80° 256° (WSW) 13:58:08 435.822/435.867
Gurwin Techsat 1B 22 Dec 13:53:58 13:59:16 74° 73° (ENE) 14:04:35 435.225
BEESAT 2 22 Dec 13:56:55 14:01:01 60° 310° (NW) 14:05:11 435.950
HORYU 2 22 Dec 14:02:08 14:06:11 35° 67° (ENE) 14:10:17 437.375
TISAT 1 22 Dec 14:07:37 14:10:07 16° 299° (WNW) 14:12:37 437.305
SWISSCUBE 22 Dec 14:09:01 14:13:48 82° 286° (WNW) 14:18:33 437.505
ITUPSAT 1 22 Dec 14:10:17 14:15:06 87° 285° (WNW) 14:19:51 437.325
GONETS M04 22 Dec 14:13:39 14:17:26 13° 48° (NE) 14:21:11
SPROUT 22 Dec 14:17:38 14:19:48 14° 300° (WNW) 14:21:58 437.525
AUBIESAT-1 22 Dec 14:21:53 14:25:55 37° 102° (ESE) 14:29:36 437.475
BEESAT 22 Dec 14:33:45 14:38:23 52° 290° (WNW) 14:43:00 436.000
M-CUBED/EXP-1 PRIME 22 Dec 14:48:49 14:53:15 80° 108° (ESE) 14:57:15 437.505
JAS-2 22 Dec 14:49:29 14:54:49 23° 58° (ENE) 14:59:47 435.910
AO-7 22 Dec 14:49:58 14:58:05 60° 63° (ENE) 15:06:16 29.400- 29.500
ISS 22 Dec 14:51:14 14:54:30 57° 340° (NNW) 14:57:46 145.825
BEESAT 3 22 Dec 14:54:36 14:57:50 22° 323° (NW) 15:01:07 437.485
STARS 22 Dec 14:57:26 15:01:42 45° 99° (E) 15:05:58 437.465
RS-15 22 Dec 14:58:00 15:07:53 37° 337° (NNW) 15:18:01 29.354- 29.394
KKS-1 22 Dec 15:05:19 15:09:50 79° 104° (ESE) 15:14:18 437.445
AIST 2 22 Dec 15:12:12 15:15:58 29° 319° (NW) 15:19:47 435.215
PCSat 22 Dec 15:16:02 15:20:51 32° 317° (NW) 15:25:43 145.827
ITAMSAT 1 22 Dec 15:31:52 15:33:14 11° 274° (W) 15:34:37 435.822/435.867
Gurwin Techsat 1B 22 Dec 15:36:30 15:39:49 17° 271° (W) 15:43:08 435.225
BEESAT 2 22 Dec 15:37:56 15:40:08 14° 331° (NNW) 15:42:20 435.950
HORYU 2 22 Dec 15:39:06 15:42:55 27° 265° (W) 15:46:45 437.375
SWISSCUBE 22 Dec 15:48:58 15:50:54 12° 304° (NW) 15:52:49 437.505
ITUPSAT 1 22 Dec 15:50:04 15:52:15 13° 304° (NW) 15:54:27 437.325
CUTE-I 22 Dec 15:55:10 15:57:26 13° 53° (NE) 15:59:41 437.470
AUBIESAT-1 22 Dec 15:57:07 16:00:41 25° 302° (WNW) 16:04:02 437.475
GONETS M04 22 Dec 16:08:10 16:16:46 54° 74° (ENE) 16:25:14
AIST 1 22 Dec 16:21:17 16:25:36 61° 95° (E) 16:29:54
M-CUBED/EXP-1 PRIME 22 Dec 16:25:12 16:27:34 14° 309° (NW) 16:29:50 437.505
ISS 22 Dec 16:28:26 16:31:29 33° 0° (N) 16:34:31 145.825
MOZHAYETS 4 22 Dec 16:29:33 16:33:16 24° 93° (E) 16:36:57
JAS-2 22 Dec 16:31:39 16:39:13 87° 255° (WSW) 16:46:03 435.910
STARS 22 Dec 16:34:31 16:37:55 22° 297° (WNW) 16:41:19 437.465
MaSat-1 22 Dec 16:36:36 16:37:06 10° 50° (NE) 16:37:37 437.345
KKS-1 22 Dec 16:43:35 16:45:52 14° 302° (WNW) 16:48:10 437.445
AO-7 22 Dec 16:43:48 16:51:16 36° 264° (W) 16:58:49 29.400- 29.500
Cubesat XI-IV 22 Dec 16:59:05 17:04:01 40° 67° (ENE) 17:08:58 437.490
PCSat 22 Dec 17:04:33 17:06:05 11° 341° (NNW) 17:07:37 145.827
RS-15 22 Dec 17:14:38 17:24:14 32° 12° (NNE) 17:34:06 29.354- 29.394
CUTE-I 22 Dec 17:31:18 17:36:35 73° 72° (ENE) 17:41:54 437.470
CUBESAT XI-V 22 Dec 17:59:11 18:01:57 16° 89° (E) 18:04:42 437.345
AIST 1 22 Dec 18:01:08 18:03:41 15° 294° (WNW) 18:06:14
HO-68 22 Dec 18:03:54 18:07:55 16° 46° (NE) 18:11:54 435.675
PRISM 22 Dec 18:04:02 18:07:43 30° 96° (E) 18:11:21 437.425
ISS 22 Dec 18:05:11 18:08:27 59° 20° (NNE) 18:11:41 145.825
GONETS M04 22 Dec 18:05:28 18:13:17 38° 275° (W) 18:21:02
MOZHAYETS 4 22 Dec 18:06:18 18:10:40 42° 291° (WNW) 18:14:59
MaSat-1 22 Dec 18:08:13 18:10:22 29° 246° (WSW) 18:12:36 437.345
JAS-2 22 Dec 18:20:04 18:24:57 19° 272° (W) 18:29:36 435.910
